When you browse on this site, cookies collect data to enhance your experience and personalize the content and advertising you see.
Visit our Privacy Policy to learn more. By continuing to use the site, you agree to this use of cookies and data.
  • In Lithuania
  • List of Countries
  • For 7 days
  • Water Temperature
  • Weather Map
  • Weather Widgets
  • user-avatar
    Login

    Hourly Weather Sydney

    Today, 11 December, Wednesday

    Time Temperature Precipitation Wind Pressure Humidity
    00:00 +18°C° 0 mm 7 mps 761 mmHg 74%
    01:00 +18°C° 0 mm 7 mps 761 mmHg 73%
    02:00 +19°C° 0 mm 6 mps 761 mmHg 74%
    03:00 +17°C° 0 mm 6 mps 760 mmHg 75%
    04:00 +17°C° 0 mm 5 mps 760 mmHg 76%
    05:00 +19°C° 0 mm 5 mps 760 mmHg 73%
    06:00 +19°C° 0 mm 5 mps 761 mmHg 70%
    07:00 +20°C° 0 mm 4 mps 761 mmHg 68%
    08:00 +21°C° 0 mm 4 mps 760 mmHg 64%
    09:00 +22°C° 0 mm 4 mps 760 mmHg 61%
    10:00 +23°C° 0 mm 4 mps 760 mmHg 61%
    11:00 +25°C° 0 mm 5 mps 759 mmHg 59%
    12:00 +25°C° 0 mm 5 mps 759 mmHg 57%
    13:00 +26°C° 0 mm 6 mps 758 mmHg 55%
    14:00 +24°C° 0 mm 6 mps 757 mmHg 57%
    15:00 +24°C° 0 mm 6 mps 757 mmHg 59%
    16:00 +23°C° 0 mm 5 mps 757 mmHg 64%
    17:00 +22°C° 0 mm 5 mps 758 mmHg 67%
    18:00 +21°C° 0 mm 5 mps 758 mmHg 70%
    19:00 +20°C° 0 mm 4 mps 759 mmHg 73%
    20:00 +20°C° 0.1 mm 5 mps 760 mmHg 74%
    21:00 +20°C° 0.1 mm 5 mps 760 mmHg 75%
    22:00 +19°C° 0.1 mm 5 mps 760 mmHg 76%
    23:00 +19°C° 0 mm 5 mps 760 mmHg 76%

    Tomorrow, 12 December, Thursday

    Time Temperature Precipitation Wind Pressure Humidity
    00:00 +17°C° 0 mm 5 mps 760 mmHg 76%
    01:00 +17°C° 0 mm 6 mps 759 mmHg 76%
    02:00 +16°C° 0 mm 5 mps 759 mmHg 77%
    03:00 +15°C° 0 mm 5 mps 759 mmHg 79%
    04:00 +15°C° 0 mm 5 mps 758 mmHg 80%
    05:00 +16°C° 0 mm 5 mps 759 mmHg 74%
    06:00 +19°C° 0 mm 4 mps 760 mmHg 69%
    07:00 +20°C° 0 mm 4 mps 760 mmHg 63%
    08:00 +21°C° 0 mm 4 mps 760 mmHg 60%
    09:00 +22°C° 0 mm 4 mps 759 mmHg 57%
    10:00 +22°C° 0 mm 4 mps 759 mmHg 54%
    11:00 +23°C° 0 mm 4 mps 759 mmHg 51%
    12:00 +25°C° 0 mm 5 mps 758 mmHg 49%
    13:00 +25°C° 0 mm 5 mps 757 mmHg 46%
    14:00 +25°C° 0 mm 5 mps 757 mmHg 49%
    15:00 +23°C° 0 mm 5 mps 757 mmHg 52%
    16:00 +22°C° 0 mm 5 mps 757 mmHg 54%
    17:00 +21°C° 0 mm 5 mps 758 mmHg 58%
    18:00 +20°C° 0 mm 5 mps 759 mmHg 62%
    19:00 +19°C° 0 mm 4 mps 760 mmHg 66%
    20:00 +19°C° 0 mm 4 mps 760 mmHg 68%
    21:00 +18°C° 0 mm 4 mps 761 mmHg 69%
    22:00 +18°C° 0 mm 4 mps 761 mmHg 71%
    23:00 +18°C° 0 mm 3 mps 761 mmHg 70%

    Day after tomorrow, 13 December, Friday

    Time Temperature Precipitation Wind Pressure Humidity
    00:00 +18°C° 0 mm 2 mps 761 mmHg 69%
    01:00 +18°C° 0 mm 2 mps 761 mmHg 68%
    02:00 +18°C° 0 mm 2 mps 760 mmHg 68%
    03:00 +19°C° 0 mm 1 mps 760 mmHg 68%
    04:00 +19°C° 0 mm 1 mps 759 mmHg 68%
    05:00 +19°C° 0 mm 2 mps 760 mmHg 66%
    06:00 +19°C° 0 mm 2 mps 760 mmHg 63%
    07:00 +20°C° 0 mm 2 mps 760 mmHg 60%
    08:00 +20°C° 0 mm 2 mps 760 mmHg 59%
    09:00 +21°C° 0 mm 2 mps 760 mmHg 57%
    10:00 +21°C° 0 mm 3 mps 760 mmHg 56%
    11:00 +22°C° 0 mm 3 mps 759 mmHg 54%
    12:00 +23°C° 0 mm 4 mps 759 mmHg 51%
    13:00 +25°C° 0 mm 4 mps 758 mmHg 49%
    14:00 +23°C° 0 mm 5 mps 758 mmHg 51%
    15:00 +23°C° 0 mm 5 mps 757 mmHg 53%
    16:00 +22°C° 0 mm 5 mps 757 mmHg 56%
    17:00 +22°C° 0 mm 5 mps 757 mmHg 60%
    18:00 +21°C° 0 mm 4 mps 758 mmHg 65%
    19:00 +20°C° 0 mm 4 mps 758 mmHg 69%
    20:00 +20°C° 0 mm 3 mps 759 mmHg 72%
    21:00 +19°C° 0 mm 3 mps 759 mmHg 75%
    22:00 +19°C° 0 mm 2 mps 760 mmHg 78%
    23:00 +19°C° 0.1 mm 2 mps 759 mmHg 79%

    14 December, Saturday

    Time Temperature Precipitation Wind Pressure Humidity
    00:00 +19°C° 0.1 mm 2 mps 759 mmHg 80%
    01:00 +18°C° 0.1 mm 2 mps 758 mmHg 81%
    02:00 +18°C° 0.1 mm 2 mps 758 mmHg 81%
    03:00 +19°C° 0.1 mm 1 mps 758 mmHg 81%
    04:00 +19°C° 0.1 mm 1 mps 758 mmHg 82%
    05:00 +20°C° 0.1 mm 1 mps 758 mmHg 77%
    06:00 +21°C° 0.1 mm 1 mps 758 mmHg 73%
    07:00 +21°C° 0.1 mm 2 mps 759 mmHg 69%
    08:00 +24°C° 0 mm 2 mps 758 mmHg 59%
    09:00 +26°C° 0 mm 2 mps 758 mmHg 50%
    10:00 +28°C° 0 mm 3 mps 758 mmHg 41%
    11:00 +29°C° 0 mm 4 mps 757 mmHg 41%
    12:00 +29°C° 0 mm 5 mps 757 mmHg 41%
    13:00 +29°C° 0 mm 6 mps 756 mmHg 41%
    14:00 +28°C° 0 mm 6 mps 756 mmHg 44%
    15:00 +28°C° 0 mm 6 mps 756 mmHg 47%
    16:00 +27°C° 0 mm 7 mps 755 mmHg 50%
    17:00 +24°C° 0 mm 6 mps 756 mmHg 57%
    18:00 +23°C° 0 mm 5 mps 757 mmHg 63%
    19:00 +21°C° 0 mm 5 mps 757 mmHg 70%
    20:00 +21°C° 0 mm 4 mps 758 mmHg 75%
    21:00 +20°C° 0 mm 3 mps 759 mmHg 79%
    22:00 +19°C° 0 mm 3 mps 759 mmHg 83%
    23:00 +19°C° 0 mm 2 mps 759 mmHg 85%

    15 December, Sunday

    Time Temperature Precipitation Wind Pressure Humidity
    00:00 +19°C° 0 mm 2 mps 759 mmHg 86%
    01:00 +18°C° 0 mm 2 mps 758 mmHg 87%
    02:00 +18°C° 0 mm 2 mps 758 mmHg 88%
    03:00 +18°C° 0 mm 2 mps 758 mmHg 89%
    04:00 +18°C° 0 mm 2 mps 757 mmHg 90%
    05:00 +19°C° 0 mm 2 mps 758 mmHg 85%
    06:00 +20°C° 0 mm 2 mps 758 mmHg 79%
    07:00 +21°C° 0 mm 2 mps 758 mmHg 74%
    08:00 +25°C° 0 mm 3 mps 758 mmHg 61%
    09:00 +28°C° 0 mm 4 mps 757 mmHg 48%
    10:00 +32°C° 0 mm 4 mps 757 mmHg 36%
    11:00 +33°C° 0 mm 5 mps 756 mmHg 31%
    12:00 +35°C° 0 mm 5 mps 755 mmHg 26%
    13:00 +38°C° 0 mm 6 mps 755 mmHg 21%
    14:00 +35°C° 0 mm 6 mps 754 mmHg 26%
    15:00 +34°C° 0 mm 7 mps 754 mmHg 31%
    16:00 +33°C° 0 mm 7 mps 753 mmHg 36%
    17:00 +30°C° 0 mm 7 mps 753 mmHg 44%
    18:00 +28°C° 0 mm 6 mps 754 mmHg 51%
    19:00 +26°C° 0 mm 6 mps 754 mmHg 59%
    20:00 +25°C° 0 mm 4 mps 755 mmHg 64%
    21:00 +24°C° 0 mm 3 mps 755 mmHg 69%
    22:00 +23°C° 0 mm 2 mps 756 mmHg 74%
    23:00 +21°C° 0 mm 2 mps 755 mmHg 77%

    16 December, Monday

    Time Temperature Precipitation Wind Pressure Humidity
    00:00 +21°C° 0 mm 3 mps 755 mmHg 81%
    01:00 +21°C° 0 mm 3 mps 755 mmHg 85%
    02:00 +20°C° 0 mm 3 mps 755 mmHg 87%
    03:00 +20°C° 0 mm 3 mps 755 mmHg 89%
    04:00 +20°C° 0 mm 2 mps 755 mmHg 90%
    05:00 +21°C° 0 mm 2 mps 755 mmHg 79%
    06:00 +23°C° 0 mm 2 mps 755 mmHg 67%
    07:00 +25°C° 0 mm 2 mps 756 mmHg 56%
    08:00 +27°C° 0 mm 3 mps 756 mmHg 49%
    09:00 +29°C° 0 mm 5 mps 756 mmHg 41%
    10:00 +32°C° 0 mm 7 mps 756 mmHg 34%
    11:00 +30°C° 0 mm 7 mps 756 mmHg 40%
    12:00 +29°C° 0 mm 8 mps 757 mmHg 46%
    13:00 +28°C° 0 mm 9 mps 757 mmHg 52%
    14:00 +27°C° 0 mm 8 mps 757 mmHg 52%
    15:00 +27°C° 0 mm 8 mps 758 mmHg 51%
    16:00 +26°C° 0 mm 8 mps 758 mmHg 50%
    17:00 +23°C° 0 mm 7 mps 759 mmHg 55%
    18:00 +22°C° 0 mm 6 mps 760 mmHg 60%
    19:00 +21°C° 0 mm 6 mps 762 mmHg 65%
    20:00 +20°C° 0 mm 5 mps 762 mmHg 68%
    21:00 +20°C° 0 mm 5 mps 763 mmHg 71%
    22:00 +19°C° 0 mm 4 mps 763 mmHg 74%
    23:00 +19°C° 0 mm 4 mps 763 mmHg 75%
    Show more